Location: Elaina
(34.1445°N, 106.7742°W)
Time: 12:49:59
(UTC+00:00)

NOSS 3-1 (C) - Pass Details

Date: 16 March 2026
Orbit: 618 x 1583 km, 63.4° (Epoch: 10 January)

Event Time Altitude Azimuth Distance (km) Brightness Sun altitude
Rises 11:39:10 0° 342° (NNW) 3,789 6.5 -20.8°
Reaches altitude 10° 11:42:35 10° 1° (N) 3,013 6.2 -20.1°
Maximum altitude 11:47:36 19° 44° (NE) 2,622 6.4 -19.0°
Drops below altitude 10° 11:53:17 10° 86° (E) 3,482 7.6 -17.9°
Sets 11:57:35 0° 103° (ESE) 4,596 8.3 -17.0°
